Weather History for Buffalo, MN

Change the Weather History Date:

Thursday, February 7, 2013

  Actual Average (KSTC) Record (KSTC)
Temperature  
Mean Temperature 24 °F 14 °F  
Max Temperature 27 °F 24 °F 52 °F (1987)
Min Temperature 22 °F 4 °F -29 °F (1933)
Degree Days  
Heating Degree Days 40 51  
Month to date heating degree days 360  
Since 1 July heating degree days 5462  
Cooling Degree Days 0 0  
Month to date cooling degree days 0  
Year to date cooling degree days 0  
Moisture  
Dew Point 21 °F    
Average Humidity 88    
Maximum Humidity 96    
Minimum Humidity 78    
Precipitation  
Precipitation 0.00 in 0.02 in 0.37 in (1937)
Month to date precipitation 0.12  
Year to date precipitation 0.77  
Snow  
Snow 0.00 in 0.20 in 6.50 in (1937)
Month to date snowfall 1.6  
Since 1 July snowfall 28.8  
Snow Depth -    
Sea Level Pressure  
Sea Level Pressure 30.12 in    
Wind  
Wind Speed 8 mph (North)    
Max Wind Speed 14 mph    
Max Gust Speed 17 mph    
Visibility 7 miles    
Events      
T = Trace of Precipitation, MM = Missing Value Source: NWS Daily Summary

Daily Weather History Graph

Daily Weather History Graph

Search for Another Location

Airport:

Trip Planner

Search our weather history database for the weather conditions in past years. The results will help you decide how hot, cold, wet, or windy it might be!

Date:

Astronomy

Feb. 07, 2013 Rise Set
Actual Time 7:27 AM CST 5:32 PM CST
Civil Twilight 6:56 AM CST 6:02 PM CST
Nautical Twilight 6:21 AM CST 6:37 PM CST
Astronomical Twilight 5:47 AM CST 7:12 PM CST
Moon 5:12 AM CST (2/7) 2:53 PM CST (2/7)
Length of Visible Light 11h 06m
Length of Day
10h 04m
Waning Crescent, 9% of the Moon is Illuminated
Feb 7
Waning Crescent
Feb 10
New
Feb 17
First Quarter
Feb 25
Full
Mar 4
Last Quarter

Hourly Weather History & Observations

Time (CST) Temp. Windchill Dew Point Humidity Pressure Visibility Wind Dir Wind Speed Gust Speed Precip Events Conditions
12:15 AM 23.0 °F 13.1 °F 20.1 °F 89% 30.00 in 7.0 mi North 9.2 mph - N/A   Overcast
12:34 AM 23.0 °F 14.7 °F 20.3 °F 89% 30.00 in 7.0 mi North 6.9 mph - N/A   Overcast
12:55 AM 23.0 °F 14.7 °F 20.3 °F 89% 30.01 in 7.0 mi North 6.9 mph - N/A   Overcast
1:15 AM 23.0 °F 13.9 °F 20.3 °F 89% 30.00 in 7.0 mi North 8.1 mph - N/A   Overcast
1:34 AM 23.0 °F 13.9 °F 20.1 °F 89% 30.01 in 7.0 mi North 8.1 mph - N/A   Overcast
1:55 AM 22.8 °F 12.9 °F 20.1 °F 89% 30.01 in 7.0 mi North 9.2 mph - N/A   Overcast
2:15 AM 22.8 °F 13.6 °F 20.1 °F 89% 30.02 in 7.0 mi North 8.1 mph - N/A   Overcast
2:34 AM 22.8 °F 14.5 °F 20.1 °F 89% 30.02 in 7.0 mi NNE 6.9 mph - N/A   Overcast
2:55 AM 22.8 °F 13.6 °F 20.3 °F 90% 30.02 in 7.0 mi North 8.1 mph - N/A   Overcast
3:14 AM 22.8 °F 14.5 °F 20.3 °F 90% 30.02 in 7.0 mi North 6.9 mph - N/A   Overcast
3:34 AM 22.8 °F 15.5 °F 20.8 °F 92% 30.02 in 7.0 mi North 5.8 mph - N/A   Overcast
3:55 AM 22.6 °F 14.3 °F 21.2 °F 94% 30.02 in 4.0 mi North 6.9 mph - N/A   Overcast
4:14 AM 22.6 °F 13.4 °F 21.4 °F 95% 30.03 in 3.0 mi North 8.1 mph - N/A   Overcast
4:34 AM 22.8 °F 15.5 °F 21.9 °F 96% 30.04 in 3.0 mi North 5.8 mph - N/A   Overcast
4:55 AM 22.8 °F 14.5 °F 21.9 °F 96% 30.04 in 3.0 mi North 6.9 mph - N/A   Overcast
5:14 AM 22.8 °F 13.6 °F 21.9 °F 96% 30.04 in 3.0 mi North 8.1 mph - N/A   Overcast
5:34 AM 22.8 °F 13.6 °F 21.9 °F 96% 30.04 in 3.0 mi North 8.1 mph - N/A   Overcast
5:55 AM 22.8 °F 13.6 °F 21.9 °F 96% 30.04 in 3.0 mi North 8.1 mph - N/A   Overcast
6:14 AM 22.8 °F 13.6 °F 21.9 °F 96% 30.04 in 4.0 mi North 8.1 mph - N/A   Overcast
6:34 AM 22.8 °F 14.5 °F 21.9 °F 96% 30.04 in 4.0 mi North 6.9 mph - N/A   Overcast
6:55 AM 22.8 °F 15.5 °F 21.9 °F 96% 30.05 in 3.0 mi North 5.8 mph - N/A   Overcast
7:14 AM 22.8 °F 15.5 °F 21.9 °F 96% 30.05 in 3.0 mi North 5.8 mph - N/A   Overcast
7:34 AM 22.3 °F 13.9 °F 21.4 °F 96% 30.06 in 3.0 mi North 6.9 mph - N/A   Overcast
7:55 AM 22.1 °F 14.7 °F 21.2 °F 96% 30.08 in 2.0 mi North 5.8 mph 9.2 mph N/A   Overcast
8:14 AM 22.1 °F 12.0 °F 21.2 °F 96% 30.09 in 2.5 mi North 9.2 mph - N/A   Overcast
8:34 AM 22.5 °F 15.1 °F 21.6 °F 96% 30.09 in 2.5 mi North 5.8 mph - N/A   Overcast
8:55 AM 22.8 °F 12.9 °F 21.7 °F 96% 30.10 in 3.0 mi North 9.2 mph - N/A   Overcast
9:14 AM 23.0 °F 14.7 °F 21.9 °F 96% 30.10 in 2.5 mi North 6.9 mph - N/A   Overcast
9:34 AM 23.0 °F 14.7 °F 22.1 °F 96% 30.11 in 2.5 mi North 6.9 mph - N/A   Overcast
9:55 AM 23.7 °F 14.7 °F 22.6 °F 96% 30.12 in 2.0 mi North 8.1 mph - N/A   Overcast
10:14 AM 23.7 °F 14.7 °F 22.6 °F 96% 30.13 in 2.0 mi North 8.1 mph - N/A   Overcast
10:34 AM 23.9 °F 14.2 °F 22.6 °F 95% 30.12 in 3.0 mi North 9.2 mph - N/A   Overcast
10:55 AM 24.3 °F 14.6 °F 22.8 °F 94% 30.13 in 5.0 mi North 9.2 mph - N/A   Overcast
11:14 AM 24.6 °F 15.8 °F 23.0 °F 94% 30.14 in 3.0 mi North 8.1 mph - N/A   Overcast
11:35 AM 24.8 °F 15.3 °F 23.0 °F 93% 30.14 in 3.0 mi North 9.2 mph - N/A   Overcast
11:54 AM 25.2 °F 15.1 °F 23.5 °F 94% 30.14 in 3.0 mi North 10.4 mph - N/A   Overcast
12:15 PM 25.3 °F 16.0 °F 23.5 °F 93% 30.13 in 3.0 mi North 9.2 mph 17.3 mph N/A   Overcast
12:35 PM 25.5 °F 16.9 °F 23.5 °F 92% 30.13 in 5.0 mi North 8.1 mph 17.3 mph N/A   Overcast
12:54 PM 25.5 °F 14.9 °F 23.4 °F 92% 30.13 in 7.0 mi North 11.5 mph 17.3 mph N/A   Overcast
1:15 PM 26.1 °F 16.2 °F 23.0 °F 88% 30.12 in 10.0 mi North 10.4 mph - N/A   Overcast
1:35 PM 26.4 °F 16.0 °F 23.0 °F 87% 30.11 in 10.0 mi NNE 11.5 mph - N/A   Overcast
1:54 PM 26.6 °F 16.2 °F 22.6 °F 85% 30.11 in 10.0 mi North 11.5 mph 17.3 mph N/A   Overcast
2:15 PM 26.6 °F 16.2 °F 22.1 °F 83% 30.12 in 10.0 mi North 11.5 mph 17.3 mph N/A   Overcast
2:35 PM 27.1 °F 17.5 °F 22.3 °F 82% 30.12 in 10.0 mi North 10.4 mph - N/A   Overcast
2:54 PM 27.1 °F 17.5 °F 21.9 °F 81% 30.13 in 10.0 mi North 10.4 mph - N/A   Overcast
3:15 PM 27.3 °F 17.7 °F 21.7 °F 80% 30.13 in 10.0 mi North 10.4 mph - N/A   Overcast
3:34 PM 27.3 °F 17.7 °F 21.4 °F 78% 30.14 in 10.0 mi North 10.4 mph - N/A   Overcast
3:54 PM 27.1 °F 18.2 °F 21.2 °F 78% 30.15 in 10.0 mi North 9.2 mph - N/A   Overcast
4:15 PM 27.3 °F 18.4 °F 21.6 °F 79% 30.16 in 10.0 mi North 9.2 mph - N/A   Overcast
4:34 PM 27.1 °F 17.5 °F 21.6 °F 80% 30.16 in 10.0 mi North 10.4 mph - N/A   Overcast
4:55 PM 26.6 °F 16.8 °F 21.7 °F 82% 30.17 in 10.0 mi North 10.4 mph 16.1 mph N/A   Overcast
5:15 PM 26.6 °F 17.5 °F 21.7 °F 82% 30.17 in 10.0 mi North 9.2 mph - N/A   Overcast
5:34 PM 26.2 °F 17.1 °F 21.6 °F 82% 30.18 in 10.0 mi North 9.2 mph - N/A   Overcast
5:55 PM 26.2 °F 17.1 °F 21.2 °F 81% 30.19 in 10.0 mi North 9.2 mph - N/A   Overcast
6:15 PM 26.2 °F 19.6 °F 21.2 °F 81% 30.20 in 10.0 mi North 5.8 mph - N/A   Overcast
6:34 PM 26.1 °F 17.6 °F 21.2 °F 82% 30.21 in 10.0 mi North 8.1 mph - N/A   Overcast
6:55 PM 26.1 °F 17.6 °F 21.2 °F 82% 30.21 in 10.0 mi North 8.1 mph - N/A   Overcast
7:15 PM 25.7 °F 17.1 °F 21.0 °F 82% 30.22 in 10.0 mi North 8.1 mph - N/A   Overcast
7:34 PM 25.7 °F 18.0 °F 21.0 °F 82% 30.22 in 10.0 mi North 6.9 mph - N/A   Overcast
7:55 PM 25.5 °F 16.2 °F 20.7 °F 82% 30.23 in 10.0 mi North 9.2 mph - N/A   Overcast
8:15 PM 25.3 °F 13.6 °F 20.7 °F 82% 30.23 in 10.0 mi NNE 13.8 mph 17.3 mph N/A   Overcast
8:34 PM 25.3 °F 16.0 °F 20.7 °F 82% 30.23 in 10.0 mi North 9.2 mph - N/A   Overcast
8:55 PM 25.3 °F 16.0 °F 20.3 °F 81% 30.23 in 10.0 mi North 9.2 mph - N/A   Overcast
9:14 PM 25.3 °F 17.6 °F 20.1 °F 81% 30.24 in 10.0 mi North 6.9 mph - N/A   Overcast
9:34 PM 25.3 °F 16.7 °F 20.3 °F 81% 30.25 in 10.0 mi NNE 8.1 mph - N/A   Overcast
9:55 PM 25.3 °F 18.5 °F 20.3 °F 81% 30.24 in 10.0 mi North 5.8 mph - N/A   Overcast
10:14 PM 25.3 °F 17.6 °F 20.3 °F 81% 30.26 in 10.0 mi North 6.9 mph - N/A   Overcast
10:34 PM 24.8 °F 16.9 °F 20.3 °F 83% 30.26 in 10.0 mi North 6.9 mph - N/A   Overcast
10:55 PM 24.6 °F 17.7 °F 20.1 °F 83% 30.26 in 10.0 mi North 5.8 mph - N/A   Overcast
11:14 PM 24.4 °F 14.9 °F 19.8 °F 82% 30.26 in 10.0 mi North 9.2 mph - N/A   Overcast
11:34 PM 23.9 °F 15.8 °F 19.8 °F 84% 30.26 in 10.0 mi North 6.9 mph - N/A   Overcast
11:55 PM 23.5 °F 16.4 °F 19.8 °F 85% 30.26 in 10.0 mi North 5.8 mph - N/A   Overcast